RADUGA 7 [-]

Last updated on Jan. 27, 2020, 4:39 a.m. UTC

1 12003U 80081A   20026.14335633 -.00000043  00000-0  00000+0 0  9998
2 12003  11.3044 314.3512 0009402 269.5645 202.4393  1.00161105100012
UTC
Height (km)
Latitude
Longitude
Inclination
Orbital Period
UTC large
Height (km)
Speed (km/s)
/
Latitude / Longitude
Inclination (degrees)
Orbital Period (minutes)
Azimuth
Elevation
Range (km)
Doppler Factor
iOS Compass Heading
iOS Angle

Next 30 passes for location: Hong Kong

Rise time Rise Azimuth (degrees) Set time Set Azimuth (degrees) Duration Max altitude (degrees)

No matching passes for this satellites